• MPC Preparation (Info)

  • MPEC 2016-O131: 2014 GW53

    The following Minor Planet Electronic Circular may be linked-to from your own Web pages, but must not otherwise be redistributed electronically.

    A form allowing access to any MPEC is at the bottom of this page.


    Read MPEC 2016-O130 Read MPEC 2016-O132


    M.P.E.C. 2016-O131                               Issued 2016 July 17, 07:28 UT
    
         The Minor Planet Electronic Circulars contain information on unusual
             minor planets and routine data on comets.  They are published
        on behalf of Division F of the International Astronomical Union by the
              Minor Planet Center, Smithsonian Astrophysical Observatory,
                              Cambridge, MA 02138, U.S.A.
    
                 Prepared using the Tamkin Foundation Computer Network
    
                                  MPC@CFA.HARVARD.EDU
                URL https://www.minorplanetcenter.net/    ISSN 1523-6714
    
                                       2014 GW53
    
    Observations:
         K14G53W  C2012 05 21.34949 14 06 16.107-02 47 40.97         21.5 wLEO131F51
         K14G53W  C2012 05 21.36401 14 06 16.040-02 47 40.74         21.6 wLEO131F51
         K14G53W  C2012 05 21.37850 14 06 15.980-02 47 40.66         21.4 wLEO131F51
         K14G53W  C2012 05 21.39303 14 06 15.918-02 47 40.46         21.6 wLEO131F51
         K14G53W  C2013 01 16.63145 14 16 40.387-04 18 07.40         21.7 wLEO131F51
         K14G53W  C2013 01 16.63538 14 16 40.394-04 18 07.56         21.7 wLEO131F51
         K14G53W  C2013 01 16.63933 14 16 40.398-04 18 07.48         22.0 wLEO131F51
         K14G53W  C2013 01 16.64330 14 16 40.405-04 18 07.57         21.9 wLEO131F51
         K14G53W  C2013 04 10.42499 14 13 53.535-03 55 10.41         21.6 wLEO131F51
         K14G53W  C2013 04 10.43861 14 13 53.471-03 55 10.01         21.4 wLEO131F51
         K14G53W  C2013 04 10.45233 14 13 53.407-03 55 09.73         21.6 wLEO131F51
         K14G53W  C2013 04 10.46598 14 13 53.351-03 55 09.30         21.4 wLEO131F51
         K14G53W  C2013 05 03.38126 14 12 02.550-03 47 06.06         21.4 wLEO131F51
         K14G53W  C2013 05 03.39484 14 12 02.484-03 47 05.64         21.6 wLEO131F51
         K14G53W  C2013 05 03.40839 14 12 02.412-03 47 05.41         21.6 wLEO131F51
         K14G53W  C2013 05 03.42196 14 12 02.343-03 47 05.21         21.5 wLEO131F51
         K14G53W* C2014 04 04.49219 14 18 47.187-04 52 39.58         21.5 wLEO131F51
         K14G53W  C2014 04 04.50556 14 18 47.136-04 52 39.14         21.6 wLEO131F51
         K14G53W  C2014 04 04.51892 14 18 47.065-04 52 38.79         21.7 wLEO131F51
         K14G53W  C2014 04 04.53234 14 18 47.006-04 52 38.56         21.5 wLEO131F51
         K14G53W  C2014 05 07.34767 14 16 09.680-04 41 10.12         21.3 iLEO131F51
         K14G53W  C2014 05 07.36027 14 16 09.610-04 41 10.04         21.2 iLEO131F51
         K14G53W  C2014 05 07.37285 14 16 09.551-04 41 09.85         21.1 iLEO131F51
         K14G53W  C2014 05 07.38544 14 16 09.496-04 41 09.60         21.1 iLEO131F51
         K14G53W  C2014 05 17.44594 14 15 22.257-04 38 34.14         21.4 iLEO131F51
         K14G53W  C2014 05 17.45795 14 15 22.230-04 38 33.39         21.2 iLEO131F51
         K14G53W  C2014 05 17.48204 14 15 22.111-04 38 33.56         20.9 iLEO131F51
         K14G53W  C2014 06 30.31895 14 12 54.798-04 35 59.16         21.8 wLEO131F51
         K14G53W  C2014 06 30.33218 14 12 54.776-04 35 59.18         21.7 wLEO131F51
         K14G53W  C2014 06 30.34543 14 12 54.753-04 35 59.35         21.8 wLEO131F51
         K14G53W  C2014 06 30.35866 14 12 54.720-04 35 59.43         21.7 wLEO131F51
         K14G53W  C2015 01 28.61445 14 25 35.611-06 05 17.19         21.8 wLEO131F51
         K14G53W  C2015 01 28.62670 14 25 35.614-06 05 17.19         21.7 wLEO131F51
         K14G53W  C2015 01 28.63896 14 25 35.627-06 05 17.03         21.7 wLEO131F51
         K14G53W  C2015 01 28.65125 14 25 35.635-06 05 17.11         21.7 wLEO131F51
         K14G53W  C2015 02 23.59539 14 25 24.103-06 01 09.72         21.8 wLEO131F51
         K14G53W  C2015 02 23.60844 14 25 24.081-06 01 09.54         21.8 wLEO131F51
         K14G53W  C2015 02 23.62148 14 25 24.057-06 01 09.37         21.8 wLEO131F51
         K14G53W  C2015 02 23.63450 14 25 24.025-06 01 09.14         21.7 wLEO131F51
         K14G53W  C2015 02 24.58351 14 25 22.398-06 00 54.90         21.8 wLEO131F51
         K14G53W  C2015 02 24.59653 14 25 22.376-06 00 54.59         21.9 wLEO131F51
         K14G53W  C2015 02 24.60955 14 25 22.356-06 00 54.50         21.8 wLEO131F51
         K14G53W  C2015 02 24.62259 14 25 22.334-06 00 54.32         21.9 wLEO131F51
         K14G53W  C2015 03 21.52052 14 24 12.888-05 53 06.20         21.6 wLEO131F51
         K14G53W  C2015 03 21.53322 14 24 12.836-05 53 05.96         21.7 wLEO131F51
         K14G53W  C2015 03 21.54610 14 24 12.796-05 53 05.68         21.6 wLEO131F51
         K14G53W  C2015 03 21.55887 14 24 12.745-05 53 05.45         21.7 wLEO131F51
         K14G53W  C2015 04 20.43489 14 22 01.100-05 42 05.47         21.4 wLEO131F51
         K14G53W  C2015 04 20.44756 14 22 01.035-05 42 05.39         21.6 wLEO131F51
         K14G53W  C2015 04 20.46024 14 22 00.968-05 42 05.10         21.5 wLEO131F51
         K14G53W  C2015 04 20.47289 14 22 00.911-05 42 04.86         21.5 wLEO131F51
         K14G53W  C2015 05 25.32192 14 19 14.938-05 32 14.37         21.1 iLEO131F51
         K14G53W  C2015 05 25.33484 14 19 14.877-05 32 14.24         21.3 iLEO131F51
         K14G53W  C2015 05 25.34773 14 19 14.824-05 32 14.04         21.1 iLEO131F51
         K14G53W  C2015 05 25.36061 14 19 14.778-05 32 13.94         21.2 iLEO131F51
         K14G53W  C2015 07 01.29112 14 17 16.455-05 30 43.94         21.2 iLEO131F51
         K14G53W  C2015 07 01.30398 14 17 16.419-05 30 44.03         21.3 iLEO131F51
         K14G53W  C2015 07 01.31675 14 17 16.399-05 30 44.17         21.1 iLEO131F51
         K14G53W  C2015 07 02.27197 14 17 14.677-05 30 50.91         21.4 iLEO131F51
         K14G53W  C2015 07 02.28403 14 17 14.651-05 30 50.95         21.1 iLEO131F51
         K14G53W  C2015 07 02.29698 14 17 14.632-05 30 51.01         21.0 iLEO131F51
         K14G53W  C2015 07 02.30990 14 17 14.610-05 30 51.20         21.1 iLEO131F51
    
    Observer details:
    F51 Pan-STARRS 1, Haleakala.  Observers B. Gibson, T. Goggia, N. Primak,
        A. Schultz, M. Willman.  Measurers K. Chambers, S. Chastel, Y.-T. Chen,
        L. Denneau, H. Flewelling, M. Holman, M. Huber, R. Jedicke, M. Lackner,
        E. Lilly, H.-W. Lin, E. Magnier, M. Micheli, M. Payne, P. Veres,
        R. Wainscoat, C. Waters, R. Weryk.  1.8-m Ritchey-Chretien + CCD.
    
    Orbital elements:
    2014 GW53
    Epoch 2016 July 31.0 TT = JDT 2457600.5                 MPC
    M 294.08887              (2000.0)            P               Q
    n   0.00368653     Peri.  235.48392     +0.29923835     +0.90419043
    a  41.5009101      Node    54.86790     -0.70671978     +0.42463832
    e   0.0831930      Incl.   21.88104     -0.64109560     -0.04606466
    P 267              H    5.4           G   0.15           U   1
    Residuals in seconds of arc
    120521 F51  0.0   0.0     140507 F51  0.1-  0.0     150224 F51  0.0   0.0
    120521 F51  0.0   0.1+    140507 F51  0.0   0.0     150321 F51  0.0   0.0
    120521 F51  0.0   0.0     140507 F51  0.1+  0.0     150321 F51  0.1-  0.1-
    120521 F51  0.0   0.0     140517 F51  0.3-  0.3-    150321 F51  0.1+  0.1-
    130116 F51  0.0   0.1+    140517 F51  0.2+  0.3+    150321 F51  0.0   0.1-
    130116 F51  0.0   0.1-    140517 F51  0.0   0.2-    150420 F51  0.1+  0.0
    130116 F51  0.0   0.0     140630 F51  0.1-  0.0     150420 F51  0.1+  0.2-
    130116 F51  0.0   0.1-    140630 F51  0.0   0.1+    150420 F51  0.0   0.1-
    130410 F51  0.0   0.1-    140630 F51  0.0   0.0     150420 F51  0.1+  0.2-
    130410 F51  0.0   0.0     140630 F51  0.1-  0.0     150525 F51  0.1-  0.1-
    130410 F51  0.0   0.1-    150128 F51  0.1+  0.0     150525 F51  0.1-  0.1-
    130410 F51  0.1+  0.1+    150128 F51  0.0   0.0     150525 F51  0.1-  0.0
    130503 F51  0.1+  0.1-    150128 F51  0.0   0.1+    150525 F51  0.1+  0.0
    130503 F51  0.1+  0.1+    150128 F51  0.0   0.0     150701 F51  0.1+  0.1+
    130503 F51  0.0   0.1+    150223 F51  0.0   0.0     150701 F51  0.0   0.1+
    130503 F51  0.0   0.0     150223 F51  0.0   0.0     150701 F51  0.0   0.0
    140404 F51  0.1-  0.1-    150223 F51  0.0   0.0     150702 F51  0.0   0.1+
    140404 F51  0.0   0.0     150223 F51  0.2-  0.0     150702 F51  0.0   0.1+
    140404 F51  0.1-  0.1+    150224 F51  0.1-  0.0     150702 F51  0.1+  0.1+
    140404 F51  0.1-  0.0     150224 F51  0.1-  0.1+    150702 F51  0.1+  0.0
    140507 F51  0.1+  0.2+    150224 F51  0.0   0.0
    
    Ephemeris:
    2014 GW53                a,e,i = 41.50, 0.08, 22                 q = 38.048
    Date    TT    R. A. (2000) Decl.     Delta      r     Elong.  Phase     V
    2016 06 17    14 22 15.5 -06 25 02  39.7051 40.3523   129.0     1.1    21.6
    ...
    2016 07 02    14 21 38.9 -06 25 41  39.9131 40.3491   114.7     1.3    21.6
    ...
    2016 07 10    14 21 27.0 -06 26 49  40.0361 40.3474   107.1     1.4    21.6
    ...
    2016 07 16    14 21 21.8 -06 28 01  40.1320 40.3461   101.5     1.4    21.6
    2016 07 17    14 21 21.3 -06 28 14  40.1482 40.3459   100.5     1.4    21.6
    2016 07 18    14 21 20.8 -06 28 29  40.1645 40.3457    99.6     1.4    21.6
    ...
    2016 07 24    14 21 20.0 -06 30 04  40.2628 40.3444    93.9     1.4    21.6
    ...
    2016 08 01    14 21 24.0 -06 32 38  40.3950 40.3427    86.3     1.4    21.7
    ...
    2016 08 16    14 21 47.5 -06 38 42  40.6377 40.3394    72.2     1.4    21.7
    
    A. U. Tomatic                (C) Copyright 2016 MPC           M.P.E.C. 2016-O131
    

    Read MPEC 2016-O130 Read MPEC 2016-O132


    MPEC number:

    Enter an MPEC number in one of the following forms:

    • 1997-B01 (the full form)
    • J97B01 (the packed version of the full form)
    • B01 (the abbreviated form)